#timestamp,LO_Frequency,Hit 
1500001215.4,286047088.6,N
1500001235.2,286047089.2,N
1500001255.0,286047089.1,N
1500001255.9,286047089.1,N
1500001275.8,286047087.3,N
1500001295.6,286047088.5,N
1500001315.4,286047090.3,N
1500001335.3,286047090.4,N
1500001355.1,286047092.2,N
1500001356.0,286047092.2,N
1500001375.8,286047091.6,N
1500001395.7,286047092.2,N
1500001415.5,286047091.2,N
1500001435.3,286047093.9,N
1500001455.1,286047091.3,N
1500001475.9,286047093.2,N
1500001495.7,286047093.8,N
1500001515.5,286047091.5,N
1500001535.4,286047091.2,N
1500001555.2,286047093.5,N
1500001575.0,286047092.3,N
1500001575.9,286047092.3,N
1500001595.8,286047088.1,N
1500001615.6,286047089.5,N
1500001635.4,286047090.6,N
1500001655.3,286047089.5,N
1500001675.1,286047093.8,N
1500001676.0,286047093.8,N
1500001695.8,286047095.1,N
1500001715.7,286047091.3,N
1500001735.5,286047093.0,N
1500001755.3,286047094.3,N
1500001775.2,286047094.1,N
1500001795.9,286047097.2,N
1500001815.7,286047094.8,N
1500001835.6,286047094.2,N
1500001855.4,286047096.8,N
1500001875.2,286047098.8,N
1500001895.0,286047095.5,N
1500001895.9,286047095.5,N
1500001915.8,286047092.6,N
1500001935.6,286047094.3,N
1500001955.4,286047095.2,N
1500001975.3,286047094.7,N
1500001995.1,286047097.5,N
1500002015.8,286047098.6,N
1500002035.7,286047098.4,N
1500002055.5,286047098.1,N
1500002075.3,286047097.9,N
1500002095.2,286047098.8,N
1500002115.9,286047095.9,N
1500002135.7,286047097.9,N
1500002155.6,286047098.3,N
1500002175.4,286047094.3,N
1500002195.2,286047096.9,N
1500002215.0,286047094.6,N
1500002216.0,286047094.6,N
1500002235.8,286047098.4,N
1500002255.6,286047098.1,N
1500002275.4,286047100.4,N
1500002295.3,286047100.4,N
1500002315.1,286047098.1,N
1500002335.8,286047100.4,N
1500002355.7,286047099.2,N
1500002375.5,286047099.1,N
1500002395.3,286047100.8,N
1500002415.2,286047098.9,N
1500002435.9,286047101.6,N
1500002455.7,286047101.8,N
1500002475.6,286047101.5,N
1500002495.4,286047103.6,N
1500002515.2,286047103.3,N
1500002535.1,286047102.8,N
1500002536.0,286047102.8,N
1500002555.8,286047102.7,N
1500002575.6,286047102.8,N
1500002595.5,286047103.2,N
1500002615.3,286047102.3,N
1500002635.1,286047104.4,N
1500002655.8,286047104.3,N
1500002675.7,286047104.0,N
1500002695.5,286047106.0,N
1500002715.3,286047106.7,N
1500002735.2,286047105.4,N
1500002755.0,286047106.3,N
1500002755.9,286047106.3,N
1500002775.7,286047103.8,N
1500002795.6,286047108.4,N
1500002815.4,286047108.2,N
1500002835.2,286047109.3,N
1500002855.1,286047108.6,N
1500002856.0,286047108.6,N
1500002875.8,286047108.9,N
1500002895.6,286047107.6,N
1500002915.5,286047107.6,N
1500002935.3,286047107.2,N
1500002955.1,286047108.1,N
1500002975.8,286047110.7,N
1500002995.7,286047111.1,N
1500003015.5,286047108.5,N
1500003035.3,286047110.7,N
1500003055.2,286047108.6,N
1500003075.0,286047107.0,N
1500003075.9,286047107.0,N
1500003095.7,286047108.3,N
1500003115.6,286047109.5,N
1500003135.4,286047108.7,N
1500003155.2,286047109.7,N
1500003175.1,286047107.7,N
1500003176.0,286047107.7,N
1500003195.8,286047111.6,N
1500003215.6,286047108.8,N
1500003235.5,286047111.0,N
1500003255.3,286047113.1,N
1500003275.1,286047114.4,N
1500003295.9,286047113.2,N
1500003315.7,286047113.1,N
1500003335.5,286047113.2,N
1500003355.4,286047112.5,N
1500003375.2,286047110.7,N
1500003395.0,286047113.1,N
1500003395.9,286047113.1,N
1500003415.8,286047112.9,N
1500003435.6,286047112.1,N
1500003455.4,286047112.8,N
1500003475.2,286047112.5,N
1500003495.1,286047114.8,N
1500003496.0,286047114.8,N
1500003515.8,286047112.7,N
1500003535.6,286047112.3,N
1500003555.5,286047113.0,N
1500003575.3,286047114.5,N
1500003595.1,286047114.8,N
1500003615.9,286047115.1,N
1500003635.7,286047115.8,N
1500003655.5,286047116.3,N
1500003675.4,286047116.2,N
1500003695.2,286047114.0,N
1500003715.0,286047113.4,N
1500003715.9,286047113.4,N
1500003735.8,286047114.4,N
1500003755.6,286047114.2,N
1500003775.4,286047114.5,N
1500003795.2,286047114.7,N
1500003815.1,286047114.5,N
1500003816.0,286047114.5,N
1500003835.8,286047113.9,N
1500003855.6,286047114.3,N
1500003875.5,286047114.8,N
1500003895.3,286047112.2,N
1500003915.1,286047109.2,N
1500003935.9,286047109.8,N
1500003955.7,286047109.9,N
1500003975.5,286047105.7,N
1500003995.4,286047108.1,N
1500004015.2,286047106.9,N
1500004035.0,286047108.1,N
1500004035.9,286047108.1,N
1500004055.8,286047107.7,N
1500004075.6,286047111.2,N
1500004095.4,286047108.8,N
1500004115.3,286047109.1,N
1500004135.1,286047110.0,N
1500004136.0,286047110.0,N
1500004155.8,286047110.5,N
1500004175.7,286047112.3,N
1500004195.5,286047112.2,N
1500004215.3,286047111.0,N
1500004235.2,286047111.1,N
1500004255.9,286047112.1,N
1500004275.7,286047110.9,N
1500004295.6,286047112.8,N
1500004315.4,286047113.1,N
1500004335.2,286047109.1,N
1500004355.0,286047111.0,N
1500004356.0,286047111.0,N
1500004375.8,286047110.7,N
1500004395.6,286047110.7,N
1500004415.4,286047113.1,N
1500004435.3,286047112.6,N
1500004455.1,286047112.3,N
1500004475.8,286047112.6,N
1500004495.7,286047110.3,N
1500004515.5,286047113.0,N
1500004535.3,286047110.5,N
1500004555.2,286047110.8,N
1500004575.9,286047113.1,N
1500004595.7,286047111.7,N
1500004615.6,286047113.9,N
1500004635.4,286047114.6,N
1500004655.2,286047114.2,N
1500004675.1,286047115.2,N
1500004676.0,286047115.2,N
1500004695.8,286047113.3,N
1500004715.6,286047114.1,N
1500004735.5,286047115.4,N
1500004755.3,286047115.9,N
1500004775.1,286047115.1,N
1500004795.9,286047115.8,N
